Outer Banks, North Carolina, United States
Lat: 35.98N, Lon: 75.65W
Wx Zone: NCZ103
Local Info
Past Weather Observations for Today

NOTE: This archive is for the closest National Weather Service station to Outer Banks. Information may differ from the station used for current weather conditions.

Click here for Long-term Archive

Time Weather Temperature Dewpoint Humidity Pressure Winds Precip Visibility
15:15
Clear
68°F / 20°C 39°F / 4°C 35% 30.18 in
(1022 mb)
E 3.5 mph
(E 6 kph)
- 10SM
14:55
Clear
68°F / 20°C 37°F / 3°C 33% 30.15 in
(1021 mb)
E 4.6 mph
(E 7 kph)
- 10SM
14:35
Clear
68°F / 20°C 37°F / 3°C 33% 30.15 in
(1021 mb)
ENE 3.5 mph
(ENE 6 kph)
- 10SM
14:15
Clear
68°F / 20°C 39°F / 4°C 35% 30.18 in
(1022 mb)
NNE 3.5 mph
(NNE 6 kph)
- 10SM
13:55
Clear
66°F / 19°C 41°F / 5°C 40% 30.15 in
(1021 mb)
ENE 5.8 mph
(ENE 9 kph)
- 10SM
13:35
Clear
66°F / 19°C 45°F / 7°C 46% 30.15 in
(1021 mb)
NE 8.1 mph
(NE 13 kph)
- 10SM
13:15
Clear
66°F / 19°C 43°F / 6°C 43% 30.15 in
(1021 mb)
NE 5.8 mph
(NE 9 kph)
- 10SM
12:55
Clear
66°F / 19°C 45°F / 7°C 46% 30.15 in
(1021 mb)
NNE 5.8 mph
(NNE 9 kph)
- 10SM
12:35
Clear
66°F / 19°C 46°F / 8°C 49% 30.15 in
(1021 mb)
NNE 5.8 mph
(NNE 9 kph)
- 10SM
12:15
Clear
66°F / 19°C 46°F / 8°C 49% 30.15 in
(1021 mb)
N 8.1 mph
(N 13 kph)
- 10SM
11:55
Clear
66°F / 19°C 48°F / 9°C 52% 30.15 in
(1021 mb)
NE 9.2 mph
(NE 15 kph)
- 10SM
11:35
Clear
66°F / 19°C 50°F / 10°C 56% 30.15 in
(1021 mb)
NE 6.9 mph
(NE 11 kph)
- 10SM
11:15
Clear
64°F / 18°C 50°F / 10°C 60% 30.15 in
(1021 mb)
N 8.1 mph
(N 13 kph)
- 10SM
10:55
Clear
64°F / 18°C 50°F / 10°C 60% 30.15 in
(1021 mb)
NNE 8.1 mph
(NNE 13 kph)
- 10SM
10:35
Clear
64°F / 18°C 50°F / 10°C 60% 30.15 in
(1021 mb)
N 8.1 mph
(N 13 kph)
- 10SM
10:15
Clear
63°F / 17°C 50°F / 10°C 64% 30.15 in
(1021 mb)
N 10.4 mph
(N 17 kph)
- 10SM
09:55
Clear
64°F / 18°C 52°F / 11°C 64% 30.12 in
(1020 mb)
N 10.4 mph
(N 17 kph)
- 10SM
09:35
Clear
63°F / 17°C 50°F / 10°C 64% 30.12 in
(1020 mb)
NNW 5.8 mph
(NNW 9 kph)
- 10SM
09:15
Clear
63°F / 17°C 50°F / 10°C 64% 30.12 in
(1020 mb)
N 8.1 mph
(N 13 kph)
- 10SM
08:55
Clear
63°F / 17°C 50°F / 10°C 64% 30.12 in
(1020 mb)
N 8.1 mph
(N 13 kph)
-
08:35
Clear
61°F / 16°C 50°F / 10°C 68% 30.09 in
(1019 mb)
N 8.1 mph
(N 13 kph)
- 10SM
08:15
Partly Cloudy
61°F / 16°C 50°F / 10°C 68% 30.09 in
(1019 mb)
N 3.5 mph
(N 6 kph)
- 10SM
07:55
Mostly Cloudy
61°F / 16°C 50°F / 10°C 68% 30.09 in
(1019 mb)
N 5.8 mph
(N 9 kph)
- 10SM
07:35
Mostly Cloudy
59°F / 15°C 52°F / 11°C 77% 30.09 in
(1019 mb)
NNW 8.1 mph
(NNW 13 kph)
- 10SM
07:15
Partly Cloudy
57°F / 14°C 52°F / 11°C 82% 30.09 in
(1019 mb)
NNW 4.6 mph
(NNW 7 kph)
- 10SM
06:55
Mostly Cloudy
57°F / 14°C 52°F / 11°C 82% 30.06 in
(1018 mb)
NNW 8.1 mph
(NNW 13 kph)
- 10SM
06:35
Partly Cloudy
57°F / 14°C 52°F / 11°C 82% 30.06 in
(1018 mb)
NNW 9.2 mph
(NNW 15 kph)
- 10SM
06:15
Partly Cloudy
57°F / 14°C 54°F / 12°C 88% 30.06 in
(1018 mb)
NW 9.2 mph
(NW 15 kph)
- 10SM
05:55
Partly Cloudy
57°F / 14°C 54°F / 12°C 88% 30.06 in
(1018 mb)
NW 5.8 mph
(NW 9 kph)
- 10SM
05:35
Partly Cloudy
57°F / 14°C 54°F / 12°C 88% 30.04 in
(1017 mb)
NW 6.9 mph
(NW 11 kph)
- 10SM
05:15
Mostly Cloudy
57°F / 14°C 54°F / 12°C 88% 30.04 in
(1017 mb)
NW 6.9 mph
(NW 11 kph)
- 10SM
04:55
Mostly Cloudy
59°F / 15°C 52°F / 11°C 77% 30.01 in
(1016 mb)
NW 6.9 mph
(NW 11 kph)
- 10SM
04:35
Partly Cloudy
59°F / 15°C 52°F / 11°C 77% 30.01 in
(1016 mb)
NNW 9.2 mph
(NNW 15 kph)
- 10SM
04:15
Overcast
59°F / 15°C 52°F / 11°C 77% 30.01 in
(1016 mb)
NW 10.4 mph
(NW 17 kph)
- 10SM
03:55
Overcast
59°F / 15°C 54°F / 12°C 82% 29.98 in
(1015 mb)
NNW 11.5 mph
(NNW 19 kph)
- 10SM
03:35
Overcast
59°F / 15°C 54°F / 12°C 82% 29.98 in
(1015 mb)
NW 9.2 mph
(NW 15 kph)
- 10SM
03:15
Overcast
59°F / 15°C 54°F / 12°C 82% 29.98 in
(1015 mb)
NW 10.4 mph
(NW 17 kph)
- 10SM
02:55
Overcast
59°F / 15°C 54°F / 12°C 82% 29.95 in
(1014 mb)
NW 8.1 mph
(NW 13 kph)
- 10SM
02:35
Overcast
59°F / 15°C 54°F / 12°C 82% 29.95 in
(1014 mb)
NNW 10.4 mph
(NNW 17 kph)
- 10SM
02:15
Overcast
59°F / 15°C 54°F / 12°C 82% 29.95 in
(1014 mb)
NNW 9.2 mph
(NNW 15 kph)
- 10SM
01:55
Overcast
59°F / 15°C 54°F / 12°C 82% 29.95 in
(1014 mb)
NNW 12.7 mph
(NNW 20 kph)
- 10SM
01:35
Overcast
59°F / 15°C 55°F / 13°C 88% 29.92 in
(1013 mb)
NW 12.7 mph
(NW 20 kph)
- 10SM
01:15
Overcast
59°F / 15°C 55°F / 13°C 88% 29.89 in
(1012 mb)
NNW 10.4 mph
(NNW 17 kph)
- 10SM
00:55
Overcast
59°F / 15°C 57°F / 14°C 94% 29.89 in
(1012 mb)
NNW 12.7 mph
(NNW 20 kph)
- 10SM
00:35
Overcast
59°F / 15°C 57°F / 14°C 94% 29.89 in
(1012 mb)
NNW 6.9 mph
(NNW 11 kph)
- 10SM
00:15
Overcast
59°F / 15°C 57°F / 14°C 94% 29.89 in
(1012 mb)
NNW 6.9 mph
(NNW 11 kph)
- 10SM
Time Weather Temperature Dewpoint Humidity Pressure Winds Precip Visibility


Weather for websites

WeatherForYou.com, LLC is not responsible for any damages or problems caused by this service. Current weather conditions are obtained from the closest station including government and personal stations which may have varying degrees of accuracy. Weather forecasts are derived from the NOAA NDFD. Like all things, this site belongs to Jesus Christ... He just trusts us to maintain it. If you have any questions or comments email webmaster@weatherforyou.com

Copyright © 2015, WeatherForYou.com LLC. All rights reserved.